Powrót do katalogu

BLACKJACK ACES-2

AktywnyMilitariaSSO
NORAD 56955·PAYLOAD·🇺🇸 United States

Wystrzelony Jun 12, 2023 z Vandenberg Space Force Base

Loading…

Następne Przeloty (najbliższe 24 godziny)

TLE

ŚwieżeSource: Space-Track

Epoka: Sep 13, 2026, 22:07 UTC

1 56955U 23084Z   26256.92183796  .00005271  00000-0  25689-3 0  9991
2 56955  97.6333  32.9693 0001893  67.1221 293.0212 15.18779182180642

Śledź BLACKJACK ACES-2 w czasie rzeczywistym z AllMySat

Download on the App Store